Regional Weather Roundup
Issued by NWS Boston, MA

Home | Current Version | Previous Version | Text Only | Print | Product List | Glossary On
Versions: 1 2 3 4 5 6 7 8 9 10 11 12 13 14 15 16 17 18 19 20 21 22 23 24 25 26 27 28 29 30 31 32 33 34 35 36 37 38 39 40 41 42 43 44 45 46 47 48 49 50
000
ASUS41 KBOX 210010
RWRBOX

REGIONAL WEATHER ROUNDUP
NATIONAL WEATHER SERVICE TAUNTON MA
800 PM EDT SAT SEP 20 2014

NOTE:  "FAIR" INDICATES FEW OR NO CLOUDS BELOW 12,000 FEET WITH NO
SIGNIFICANT WEATHER AND/OR OBSTRUCTIONS TO VISIBILITY.  THE FOLLOWING
OBSERVATION LOCATIONS DO NOT REPORT PRESENT WEATHER...PROVINCETOWN...
SMITHFIELD...BLOCK ISLAND...KEENE...AND OXFORD.

MAZALL-210100-
EASTERN MASSACHUSETTS

CITY           SKY/WX    TMP DP  RH WIND       PRES   REMARKS
BOSTON         PTCLDY    66  53  63 S14       30.15R
6HR MIN TEMP:  66; 6HR MAX TEMP:  73;

BEVERLY        PTCLDY    65  52  62 S9        30.13S
LAWRENCE       PTCLDY    65  53  65 S7        30.15R
BEDFORD        CLEAR     64  53  67 S10       30.13R
BLUE HILL        N/A     63  52  67 S14       30.16R
NORWOOD        PTCLDY    62  52  69 S5        30.15S
MARSHFIELD     NOT AVBL
PLYMOUTH       CLEAR     61  53  75 CALM      30.18S
TAUNTON        CLEAR     56  53  90 CALM      30.16S
NEW BEDFORD    CLEAR     61  55  81 CALM      30.16F
$$

MAZALL-210100-
CAPE COD AND THE ISLANDS

CITY           SKY/WX    TMP DP  RH WIND       PRES   REMARKS
FALMOUTH       CLEAR     63  57  82 S6        30.17S
HYANNIS        CLEAR     66  58  75 S8        30.16F
CHATHAM        CLEAR     62  57  83 VRB5      30.19F
PROVINCETOWN   CLEAR     63  57  82 MISG      30.18S
NANTUCKET      CLOUDY    64  58  80 SE8       30.19F
MARTHAS VNYRD  PTCLDY    62  59  90 S6        30.18S
$$

MAZALL-210100-
CENTRAL AND WESTERN MASSACHUSETTS

CITY           SKY/WX    TMP DP  RH WIND       PRES   REMARKS
WORCESTER      CLEAR     60  54  80 S9        30.15S
6HR MIN TEMP:  60; 6HR MAX TEMP:  67;

FITCHBURG      MOCLDY    65  54  67 S7        30.15R
ORANGE         CLOUDY    65  56  72 S7        30.12S
SPRINGFIELD    CLEAR     63  55  75 S8        30.12S
WESTFIELD      CLEAR     63  55  75 S7        30.12S
NORTH ADAMS    CLEAR     64  56  75 MISG      30.09S
PITTSFIELD     CLEAR     62  55  77 S14G24    30.09S
$$

RIZALL-210100-
RHODE ISLAND

CITY           SKY/WX    TMP DP  RH WIND       PRES   REMARKS
PROVIDENCE     PTCLDY    63  55  75 S5        30.16S
6HR MIN TEMP:  62; 6HR MAX TEMP:  72;

NEWPORT        CLEAR     64  58  80 S5        30.16F
BLOCK ISLAND   CLEAR     64  57  77 S5        30.16F
SMITHFIELD     CLEAR     59  48  67 S3        30.16S
WESTERLY       CLEAR     66  60  81 S7        30.16F
$$

CTZALL-210100-
CONNECTICUT

CITY           SKY/WX    TMP DP  RH WIND       PRES   REMARKS
BRADLEY INTL   PTCLDY    66  55  67 S8        30.12S
6HR MIN TEMP:  66; 6HR MAX TEMP:  75;

HARTFORD       CLEAR     64  56  75 S6        30.12F
BRIDGEPORT     CLEAR     70  61  73 S13       30.13S
DANBURY        CLEAR     64  56  75 S5        30.14R
GROTON         CLEAR     66  61  84 S10       30.14F
NEW HAVEN      CLEAR     69  61  75 S13       30.13S
CHESTER        FAIR      63  57  82 S7        30.15S
MERIDEN        CLEAR     61  56  83 CALM      30.13S
WILLIMANTIC    CLEAR     62  54  74 S3        30.15S
OXFORD         PTCLDY    63  54  72 S10       30.14S
$$

MEZ002-015-021-024-NHZ003-005-008-011-012-014-VTZ005-008-210100-
NORTHERN NEW ENGLAND

CITY           SKY/WX    TMP DP  RH WIND       PRES   REMARKS
PORTLAND ME    CLOUDY    62  55  77 S9        30.11F
6HR MIN TEMP:  60; 6HR MAX TEMP:  62;

BANGOR ME      CLOUDY    58  51  78 S15       30.10F
CONCORD NH     CLOUDY    64  55  72 S9        30.10F
MANCHESTER NH  MOCLDY    67  53  61 S10       30.10S
NASHUA NH      MOCLDY    66  55  67 CALM      30.13R
PORTSMOUTH NH  CLOUDY    63  56  76 S5        30.12R
JAFFREY NH     CLOUDY    63  54  72 S9G17     30.14R
KEENE NH       PTCLDY    63  50  63 SW9       30.10F
BURLINGTON VT  MOCLDY    66  56  70 S10       29.97F
MT. WASHINGTON FOG       43  43 100 W63         N/A  VSB 0   WCI  28
$$

NYZ052-076-210100-
EASTERN NEW YORK

CITY           SKY/WX    TMP DP  RH WIND       PRES   REMARKS
ALBANY         PTCLDY    69  56  62 S13G22    30.03F
6HR MIN TEMP:  69; 6HR MAX TEMP:  75;

NEW YORK CITY  PTCLDY    70  61  73 S9        30.11F
6HR MIN TEMP:  70; 6HR MAX TEMP:  73;

$$

ANZALL-210100-
MARINE OBSERVATIONS

STATION/POSITION TIME  TEMP    WIND        PRES    VSBY  WAVE
                       AIR SEA DIR/SP/G                  HT/PER
                 (UTC) (F)     (DEG/KT/KT) (MB)    (MI)  (FT/S)
BOSTON BUOY      2350   64 61  190/ 12/ 12 1021.3F         2/ 4
BUZZARDS BAY     2300          190/  9/  9 1022.4F
NANTUCKET SOUND  2350   65 67  160/ 10/ 12 1021.8F         1/ 3
MASS BAY-STELLWA 2304   64 60  180/ 16/ 17   N/A    1 7/8  3/ 5
ISLE OF SHOALS   0000   63     180/ 17/ 18 1019.9R
S OF BLOCK IS    2308      67                N/A           3/ 8
$$

......................KEY.........................
  SKY/WX - SKY CONDITION/PRESENT WEATHER
  TMP    - TEMPERATURE IN FAHRENHEIT
  DWPT   - DEWPOINT IN FAHRENHEIT
  RH     - RELATIVE HUMIDITY IN PERCENT
  WIND   - DIRECTION AND SPEED IN MPH
  PRES   - MEAN SEA LEVEL PRESSURE IN INCHES OF HG
  WCI    - WIND CHILL INDEX
  VSB    - VISIBILITY IN MILES
  HX     - HEAT INDEX
  TC     - TEMPERATURE IN CELSIUS
  VRB    - VARIABLE WIND DIRECTION
  N/A    - NOT AVAILABLE



USA.gov is the U.S. government's official web portal to all federal, state and local government web resources and services.